Погода в Сантандере

Испания     43°27′41″N   3°48′21″W
темп.,
°C
ветер,
м/с
пор.,
м/с
влажн.,
%
обл.,
%
осадки,
мм/ч
давл.,
гПа
погр.,
м
8 мая, сб
сб823:00+15вюв228771 0.0 101823
02:00+13юв228776 0.0 101663
05:00+13вюв23895 0.0 101490
08:00+13юв228662 0.0 101377
11:00+17ссв2475100 0.0 1011257
14:00+19ссв25685 0.0 1008461
17:00+19с3575100 0.0 1006527
20:00+20ююв0165100 0.0 100336
9 мая, вс
вс923:00+18юз2367100 0.0 100324
02:00+16зюз1280100 0.0 100218
05:00+15зюз2273100 0.0 100024
08:00+17ююв7136099 0.0 999205
11:00+20ю101640100 0.0 1000525
14:00+14зсз7983100 0.0 1002643
17:00+15зсз6874100 0.1 1002599
20:00+13зсз2582100 0.4 1004543
10 мая, пн
пн1023:00+12ю2387100 0.6 1006173
02:00+13ю117794 0.8 100767
05:00+12ююв22785 0.1 100784
08:00+11ю33765 0.3 1008130
11:00+15ююв23565 0.0 1008338
14:00+17зюз365222 0.0 1006632
17:00+16с5563100 0.0 1005678
20:00+12сз668892 0.7 1008550
11 мая, вт
вт1123:00+11з7989100 7.3 1011815
02:00+10юз5786100 8.8 1011385
05:00+10юз4779100 0.1 1012644
08:00+11зюз467483 0.5 1013691
11:00+12зюз23611 0.1 1014666
14:00+12з9106896 0.1 1016859
17:00+13з11147488 0.4 10181564
20:00+13зсз101272100 1.4 10201313
12 мая, ср
ср1223:00+12з897411 0.4 10221091
02:00+11зюз46786 0.5 1022507
05:00+9ю228089 0.0 1021107
08:00+10ююв237372 0.0 1020105
11:00+14в2355100 0.0 1018601
14:00+15св545591 0.0 1016511
17:00+15в556497 0.0 1014343
20:00+14св5674100 0.3 1014352